TimeEST,TemperatureF,Dew PointF,Humidity,Sea Level PressureIn,VisibilityMPH,Wind Direction,Wind SpeedMPH,Gust SpeedMPH,PrecipitationIn,Events,Conditions,WindDirDegrees,DateUTC
12:36 AM,30.2,28.4,93,29.50,2.0,NNW,9.2,-,0.02,Snow,Light Snow,330,2012-12-30 05:36:00
12:51 AM,30.9,28.0,89,29.51,2.0,NW,9.2,-,0.02,Snow,Light Snow,320,2012-12-30 05:51:00
1:19 AM,32.0,26.6,80,29.51,3.0,NW,9.2,-,0.00,Snow,Light Snow,320,2012-12-30 06:19:00
1:51 AM,30.9,23.0,72,29.53,3.0,NW,10.4,-,0.00,,Mostly Cloudy,310,2012-12-30 06:51:00
2:51 AM,30.0,21.9,72,29.55,10.0,NW,11.5,-,N/A,,Mostly Cloudy,320,2012-12-30 07:51:00
3:39 AM,28.4,21.2,74,29.55,10.0,NNW,11.5,18.4,N/A,,Mostly Cloudy,330,2012-12-30 08:39:00
3:51 AM,30.0,21.9,72,29.56,10.0,NW,9.2,16.1,N/A,,Mostly Cloudy,320,2012-12-30 08:51:00
4:51 AM,28.9,21.0,72,29.58,10.0,NW,6.9,-,N/A,,Mostly Cloudy,310,2012-12-30 09:51:00
5:51 AM,27.0,18.0,69,29.65,10.0,NW,9.2,-,N/A,,Mostly Cloudy,320,2012-12-30 10:51:00
6:36 AM,24.8,15.8,69,29.67,10.0,NW,16.1,20.7,N/A,,Mostly Cloudy,320,2012-12-30 11:36:00
6:51 AM,25.0,16.0,69,29.69,10.0,NW,11.5,-,N/A,,Mostly Cloudy,320,2012-12-30 11:51:00
7:51 AM,25.0,14.0,63,29.73,10.0,NW,11.5,21.9,N/A,,Mostly Cloudy,320,2012-12-30 12:51:00
8:51 AM,25.0,12.9,60,29.76,10.0,NNW,6.9,17.3,N/A,,Mostly Cloudy,330,2012-12-30 13:51:00
9:51 AM,25.0,14.0,63,29.79,10.0,NW,10.4,21.9,N/A,,Mostly Cloudy,320,2012-12-30 14:51:00
10:51 AM,25.0,14.0,63,29.81,10.0,NW,21.9,33.4,0.00,,Mostly Cloudy,320,2012-12-30 15:51:00
11:51 AM,26.1,14.0,60,29.81,10.0,NW,20.7,27.6,N/A,,Mostly Cloudy,320,2012-12-30 16:51:00
12:51 PM,26.6,14.0,59,29.82,10.0,NW,16.1,23.0,N/A,,Mostly Cloudy,310,2012-12-30 17:51:00
1:51 PM,27.0,12.0,53,29.82,10.0,NNW,8.1,18.4,N/A,,Mostly Cloudy,330,2012-12-30 18:51:00
2:51 PM,28.9,10.0,45,29.85,10.0,NNW,13.8,25.3,N/A,,Partly Cloudy,330,2012-12-30 19:51:00
3:51 PM,28.0,10.0,47,29.88,10.0,WNW,20.7,39.1,0.00,,Partly Cloudy,300,2012-12-30 20:51:00
4:51 PM,26.1,9.0,49,29.92,10.0,NW,20.7,31.1,N/A,,Clear,310,2012-12-30 21:51:00
5:51 PM,24.1,9.0,53,29.96,10.0,NW,18.4,36.8,N/A,,Clear,320,2012-12-30 22:51:00
6:51 PM,24.1,9.0,53,30.01,10.0,NW,13.8,28.8,N/A,,Clear,310,2012-12-30 23:51:00
7:51 PM,24.1,9.0,53,30.03,10.0,NNW,11.5,23.0,N/A,,Clear,330,2012-12-31 00:51:00
8:51 PM,21.9,9.0,58,30.04,10.0,North,6.9,-,N/A,,Partly Cloudy,360,2012-12-31 01:51:00
9:51 PM,21.9,8.1,55,30.05,10.0,NW,17.3,24.2,N/A,,Clear,320,2012-12-31 02:51:00
10:51 PM,21.9,7.0,53,30.06,10.0,North,12.7,-,N/A,,Clear,360,2012-12-31 03:51:00
11:51 PM,23.0,6.1,48,30.05,10.0,NNW,11.5,19.6,N/A,,Clear,340,2012-12-31 04:51:00